Location: Costa Valle Imagna
(45.8000°N, 9.5000°E)
Time: 02:08:24
(UTC+00:00)

IDEFIX/ARIANE 42P - Pass Details

Date: 17 February 2020
Orbit: 784 x 804 km, 98.3° (Epoch: 05 April)

Event Time Altitude Azimuth Distance (km) Brightness Sun altitude
Rises 03:45:56 0° 6° (N) 3,320 6.0 -27.8°
Reaches altitude 10° 03:48:24 10° 359° (N) 2,382 5.1 -27.4°
Enters shadow 03:50:26 22° 346° (NNW) 1,700 4.2 -27.0°
